| time (UTC) | temp F | wind direction | speed MPH | gust MPH | rain 1hr in | rain 24hr in | rain mn in | humidity % | barometer mb |
| 20260906060327 | 58 | 69 | 3.0 | 4.0 | 0.00 | 0.00 | 0.00 | 84 | 1027.4 |
| 20260906055322 | 58 | 69 | 3.0 | 4.0 | 0.00 | 0.00 | 0.00 | 84 | 1027.3 |
| 20260906054313 | 58 | 69 | 3.0 | 5.0 | 0.00 | 0.00 | 0.00 | 84 | 1027.2 |
| 20260906053313 | 58 | 64 | 3.0 | 6.0 | 0.00 | 0.00 | 0.00 | 84 | 1027.1 |
| 20260906052315 | 0 | 0.0 | 0.0 | 0.00 | 0.00 | 0.00 | 1027.1 | ||
| 20260906051233 | 0 | 0.0 | 0.0 | 0.00 | 0.00 | 0.00 | 1027.2 | ||
| 20260906045138 | 0 | 0.0 | 0.0 | 0.00 | 0.00 | 0.00 | 1027.1 | ||
| 20260906044121 | 0 | 0.0 | 0.0 | 0.00 | 0.00 | 0.00 | 1026.9 | ||
| 20260906042032 | 0 | 0.0 | 0.0 | 0.00 | 0.00 | 0.00 | 1026.9 | ||
| 20260906041030 | 0 | 0.0 | 0.0 | 0.00 | 0.00 | 0.00 | 1027.1 | ||
| 20260906035936 | 0 | 0.0 | 0.0 | 0.00 | 0.00 | 0.00 | 1026.9 | ||
| 20260906034934 | 0 | 0.0 | 0.0 | 0.00 | 0.00 | 0.00 | 1026.9 | ||
| 20260906033933 | 0 | 0.0 | 0.0 | 0.00 | 0.00 | 0.00 | 1027.1 | ||
| 20260906032931 | 0 | 0.0 | 0.0 | 0.00 | 0.00 | 0.00 | 1027.1 | ||
| 20260906031928 | 0 | 0.0 | 0.0 | 0.00 | 0.00 | 0.00 | 1027.1 | ||
| 20260906030924 | 0 | 0.0 | 0.0 | 0.00 | 0.00 | 0.00 | 1027.2 | ||
| 20260906025831 | 0 | 0.0 | 0.0 | 0.00 | 0.00 | 0.00 | 1027.2 | ||
| 20260906024827 | 0 | 0.0 | 0.0 | 0.00 | 0.00 | 0.00 | 1027.3 | ||
| 20260906015634 | 0 | 0.0 | 0.0 | 0.00 | 0.00 | 0.00 | 1027.4 | ||
| 20260906014630 | 0 | 0.0 | 0.0 | 0.00 | 0.00 | 0.00 | 1027.4 | ||
| 20260906013538 | 0 | 0.0 | 0.0 | 0.00 | 0.00 | 0.00 | 1027.4 | ||
| 20260906012533 | 0 | 0.0 | 0.0 | 0.00 | 0.00 | 0.00 | 1027.3 | ||
| 20260906010529 | 0 | 0.0 | 0.0 | 0.00 | 0.00 | 0.00 | 1027.1 | ||
| 20260906004438 | 0 | 0.0 | 0.0 | 0.00 | 0.00 | 0.00 | 1027.3 | ||
| 20260906002329 | 0 | 0.0 | 0.0 | 0.00 | 0.00 | 0.00 | 1027.5 | ||
| 20260906001330 | 0 | 0.0 | 0.0 | 0.00 | 0.00 | 0.00 | 1027.6 | ||
| 20260906000329 | 0 | 0.0 | 0.0 | 0.00 | 0.00 | 0.00 | 1027.6 | ||
| 20260905235322 | 0 | 0.0 | 0.0 | 0.00 | 0.00 | 0.00 | 1027.6 | ||
| 20260905234231 | 0 | 0.0 | 0.0 | 0.00 | 0.00 | 0.00 | 1027.5 | ||
| 20260905233231 | 0 | 0.0 | 0.0 | 0.00 | 0.00 | 0.00 | 1027.7 | ||
| 20260905232231 | 62 | 75 | 3.0 | 1.0 | 0.00 | 0.00 | 0.00 | 69 | 1027.7 |
| 20260905224129 | 0 | 0.0 | 0.0 | 0.00 | 0.00 | 0.00 | 1027.8 | ||
| 20260905223125 | 0 | 0.0 | 0.0 | 0.00 | 0.00 | 0.00 | 1027.9 | ||
| 20260905222039 | 0 | 0.0 | 0.0 | 0.00 | 0.00 | 0.00 | 1027.8 | ||
| 20260905220018 | 0 | 0.0 | 0.0 | 0.00 | 0.00 | 0.00 | 1028.0 | ||
| 20260905214933 | 0 | 0.0 | 0.0 | 0.00 | 0.00 | 0.00 | 1027.9 | ||
| 20260905212839 | 0 | 0.0 | 0.0 | 0.00 | 0.00 | 0.00 | 1028.0 | ||
| 20260905211841 | 66 | 59 | 1.0 | 2.0 | 0.00 | 0.00 | 0.00 | 62 | 1027.9 |
| 20260905210833 | 66 | 59 | 1.0 | 3.0 | 0.00 | 0.00 | 0.00 | 62 | 1027.9 |
| 20260905205831 | 66 | 59 | 1.0 | 3.0 | 0.00 | 0.00 | 0.00 | 62 | 1027.9 |
| 20260905204826 | 67 | 59 | 0.0 | 2.0 | 0.00 | 0.00 | 0.00 | 60 | 1028.0 |
| 20260905203824 | 67 | 59 | 1.0 | 2.0 | 0.00 | 0.00 | 0.00 | 59 | 1028.0 |
| 20260905202825 | 0 | 0.0 | 0.0 | 0.00 | 0.00 | 0.00 | 1028.1 | ||
| 20260905195638 | 69 | 59 | 4.0 | 3.0 | 0.00 | 0.00 | 0.00 | 56 | 1028.0 |
| 20260905194635 | 69 | 59 | 4.0 | 5.0 | 0.00 | 0.00 | 0.00 | 56 | 1027.9 |
| 20260905193629 | 0 | 0.0 | 0.0 | 0.00 | 0.00 | 0.00 | 1027.9 | ||
| 20260905192625 | 0 | 0.0 | 0.0 | 0.00 | 0.00 | 0.00 | 1027.8 | ||
| 20260905191535 | 0 | 0.0 | 0.0 | 0.00 | 0.00 | 0.00 | 1027.6 | ||
| 20260905190439 | 0 | 0.0 | 0.0 | 0.00 | 0.00 | 0.00 | 1027.7 | ||
| 20260905185431 | 69 | 0.0 | 0.0 | 0.00 | 0.00 | 0.00 | 55 | 1027.7 | |
| 20260905184336 | 69 | 36 | 4.0 | 5.0 | 0.00 | 0.00 | 0.00 | 55 | 1027.5 |
| 20260905183334 | 70 | 22 | 4.0 | 6.0 | 0.00 | 0.00 | 0.00 | 54 | 1027.4 |
| 20260905182336 | 70 | 22 | 4.0 | 6.0 | 0.00 | 0.00 | 0.00 | 53 | 1027.3 |
| 20260905181334 | 71 | 22 | 5.0 | 8.0 | 0.00 | 0.00 | 0.00 | 52 | 1027.3 |
| 20260905174334 | 71 | 34 | 5.0 | 9.0 | 0.00 | 0.00 | 0.00 | 52 | 1027.1 |
| 20260905173334 | 72 | 24 | 5.0 | 8.0 | 0.00 | 0.00 | 0.00 | 52 | 1027.1 |
| 20260905172336 | 73 | 21 | 7.0 | 10.0 | 0.00 | 0.00 | 0.00 | 50 | 1026.9 |
| 20260905171334 | 74 | 20 | 8.0 | 10.0 | 0.00 | 0.00 | 0.00 | 50 | 1026.7 |
| 20260905165330 | 74 | 39 | 8.0 | 12.0 | 0.00 | 0.00 | 0.00 | 50 | 1026.7 |
| 20260905164329 | 75 | 38 | 6.0 | 10.0 | 0.00 | 0.00 | 0.00 | 50 | 1026.7 |
| 20260905163329 | 76 | 32 | 5.0 | 10.0 | 0.00 | 0.00 | 0.00 | 50 | 1026.5 |
| 20260905162330 | 75 | 19 | 7.0 | 11.0 | 0.00 | 0.00 | 0.00 | 48 | 1026.6 |
| 20260905161329 | 75 | 316 | 5.0 | 10.0 | 0.00 | 0.00 | 0.00 | 49 | 1026.5 |
| 20260905160327 | 76 | 324 | 6.0 | 10.0 | 0.00 | 0.00 | 0.00 | 47 | 1026.5 |
| 20260905155328 | 76 | 311 | 7.0 | 12.0 | 0.00 | 0.00 | 0.00 | 48 | 1026.5 |
| 20260905154326 | 76 | 14 | 7.0 | 11.0 | 0.00 | 0.00 | 0.00 | 50 | 1026.5 |
| 20260905153326 | 76 | 306 | 7.0 | 10.0 | 0.00 | 0.00 | 0.00 | 49 | 1026.4 |
| 20260905152326 | 75 | 290 | 9.0 | 15.0 | 0.00 | 0.00 | 0.00 | 49 | 1026.4 |
| 20260905151325 | 75 | 327 | 8.0 | 12.0 | 0.00 | 0.00 | 0.00 | 50 | 1026.4 |
| 20260905150327 | 76 | 323 | 9.0 | 12.0 | 0.00 | 0.00 | 0.00 | 47 | 1026.4 |
| 20260905145327 | 75 | 305 | 7.0 | 12.0 | 0.00 | 0.00 | 0.00 | 47 | 1026.3 |
| 20260905143324 | 76 | 290 | 8.0 | 16.0 | 0.00 | 0.00 | 0.00 | 46 | 1026.4 |
| 20260905142324 | 76 | 330 | 7.0 | 12.0 | 0.00 | 0.00 | 0.00 | 48 | 1026.3 |
| 20260905141323 | 76 | 310 | 8.0 | 12.0 | 0.00 | 0.00 | 0.00 | 47 | 1026.5 |
| 20260905140325 | 75 | 298 | 8.0 | 14.0 | 0.00 | 0.00 | 0.00 | 46 | 1026.3 |
| 20260905135324 | 75 | 319 | 9.0 | 17.0 | 0.00 | 0.00 | 0.00 | 45 | 1026.4 |
| 20260905134319 | 76 | 277 | 10.0 | 14.0 | 0.00 | 0.00 | 0.00 | 45 | 1026.5 |
| 20260905133318 | 76 | 327 | 9.0 | 14.0 | 0.00 | 0.00 | 0.00 | 46 | 1026.4 |
| 20260905131317 | 76 | 306 | 11.0 | 19.0 | 0.00 | 0.00 | 0.00 | 47 | 1026.4 |
| 20260905130318 | 75 | 307 | 7.0 | 18.0 | 0.00 | 0.00 | 0.00 | 46 | 1026.4 |
| 20260905125319 | 75 | 314 | 6.0 | 12.0 | 0.00 | 0.00 | 0.00 | 47 | 1026.4 |
| 20260905124321 | 75 | 262 | 5.0 | 11.0 | 0.00 | 0.00 | 0.00 | 47 | 1026.4 |
| 20260905122318 | 75 | 252 | 10.0 | 15.0 | 0.00 | 0.00 | 0.00 | 47 | 1026.5 |
| 20260905120313 | 75 | 318 | 6.0 | 14.0 | 0.00 | 0.00 | 0.00 | 47 | 1026.4 |
| 20260905115311 | 75 | 232 | 6.0 | 15.0 | 0.00 | 0.00 | 0.00 | 49 | 1026.4 |
| 20260905114311 | 74 | 269 | 8.0 | 14.0 | 0.00 | 0.00 | 0.00 | 47 | 1026.4 |
| 20260905113313 | 74 | 315 | 9.0 | 14.0 | 0.00 | 0.00 | 0.00 | 50 | 1026.4 |
| 20260905112311 | 74 | 262 | 7.0 | 12.0 | 0.00 | 0.00 | 0.00 | 49 | 1026.5 |
| 20260905111312 | 74 | 287 | 9.0 | 13.0 | 0.00 | 0.00 | 0.00 | 51 | 1026.5 |
| 20260905110311 | 74 | 296 | 8.0 | 13.0 | 0.00 | 0.00 | 0.00 | 51 | 1026.5 |
| 20260905105314 | 73 | 271 | 8.0 | 10.0 | 0.00 | 0.00 | 0.00 | 52 | 1026.5 |
| 20260905104306 | 73 | 254 | 8.0 | 11.0 | 0.00 | 0.00 | 0.00 | 52 | 1026.5 |
| 20260905103306 | 72 | 306 | 6.0 | 11.0 | 0.00 | 0.00 | 0.00 | 51 | 1026.5 |
| 20260905102307 | 72 | 265 | 6.0 | 9.0 | 0.00 | 0.00 | 0.00 | 54 | 1026.5 |
| 20260905101306 | 72 | 257 | 4.0 | 9.0 | 0.00 | 0.00 | 0.00 | 54 | 1026.5 |
| 20260905100303 | 71 | 242 | 6.0 | 10.0 | 0.00 | 0.00 | 0.00 | 54 | 1026.6 |
| 20260905095306 | 71 | 270 | 6.0 | 11.0 | 0.00 | 0.00 | 0.00 | 54 | 1026.7 |
| 20260905094303 | 71 | 279 | 4.0 | 10.0 | 0.00 | 0.00 | 0.00 | 56 | 1026.6 |
| 20260905093303 | 70 | 268 | 5.0 | 10.0 | 0.00 | 0.00 | 0.00 | 56 | 1026.6 |
| 20260905092306 | 70 | 252 | 6.0 | 9.0 | 0.00 | 0.00 | 0.00 | 55 | 1026.6 |
| 20260905091259 | 70 | 288 | 5.0 | 8.0 | 0.00 | 0.00 | 0.00 | 55 | 1026.4 |
| 20260905090258 | 70 | 255 | 5.0 | 9.0 | 0.00 | 0.00 | 0.00 | 53 | 1026.4 |
| 20260905085259 | 70 | 240 | 3.0 | 10.0 | 0.00 | 0.00 | 0.00 | 53 | 1026.3 |
| 20260905083256 | 69 | 237 | 2.0 | 5.0 | 0.00 | 0.00 | 0.00 | 54 | 1026.1 |
| 20260905082256 | 69 | 235 | 0.0 | 1.0 | 0.00 | 0.00 | 0.00 | 54 | 1026.0 |
| 20260905081256 | 69 | 235 | 0.0 | 0.0 | 0.00 | 0.00 | 0.00 | 54 | 1025.9 |
| 20260905080254 | 68 | 235 | 1.0 | 2.0 | 0.00 | 0.00 | 0.00 | 55 | 1025.9 |
| 20260905075249 | 67 | 235 | 0.0 | 2.0 | 0.00 | 0.00 | 0.00 | 54 | 1025.8 |
| 20260905074250 | 67 | 235 | 2.0 | 3.0 | 0.00 | 0.00 | 0.00 | 53 | 1025.7 |
| 20260905073248 | 67 | 242 | 1.0 | 3.0 | 0.00 | 0.00 | 0.00 | 54 | 1025.5 |
| 20260905072244 | 66 | 242 | 2.0 | 4.0 | 0.00 | 0.00 | 0.00 | 56 | 1025.6 |
| 20260905071246 | 65 | 240 | 2.0 | 4.0 | 0.00 | 0.00 | 0.00 | 54 | 1025.2 |
| 20260905070252 | 66 | 244 | 0.0 | 2.0 | 0.00 | 0.00 | 0.00 | 56 | 1025.2 |
| 20260905065239 | 66 | 245 | 2.0 | 4.0 | 0.00 | 0.00 | 0.00 | 55 | 1025.1 |
| 20260905064247 | 66 | 227 | 2.0 | 3.0 | 0.00 | 0.00 | 0.00 | 52 | 1025.0 |
| 20260905062240 | 67 | 227 | 3.0 | 5.0 | 0.00 | 0.00 | 0.00 | 50 | 1024.8 |
| 20260905061237 | 66 | 242 | 2.0 | 5.0 | 0.00 | 0.00 | 0.00 | 50 | 1024.6 |